Regional Weather Roundup
Issued by NWS

Home | Current Version | Previous Version | Text Only | Print | Product List | Glossary Off
Versions: 1 2 3 4 5 6 7 8 9 10 11 12 13 14 15 16 17 18 19 20 21 22 23 24 25 26 27 28

000
ASUS45 KCYS 200010
RWRWY

WYOMING REGIONAL WEATHER ROUNDUP
NATIONAL WEATHER SERVICE CHEYENNE WY
500 PM MST SUN FEB 19 2017

NOTE:  "FAIR" INDICATES FEW OR NO CLOUDS BELOW 12,000 FEET
WITH NO SIGNIFICANT WEATHER AND/OR OBSTRUCTIONS TO VISIBILITY.

WYZ001-200100-
YELLOWSTONE NATIONAL PARK

CITY           SKY/WX    TMP DP  RH WIND       PRES   REMARKS
LK YELLOWSTONE   N/A     28  24  85 VRB7G17   29.67S WCI  21
6HR MIN TEMP:  28; 6HR MAX TEMP:  34; 6HR PCP:  0.01;

W YELLOWSTONE  NOT AVBL

$$
WYZ002>013-054>058-071-098>099-200100-
NORTHERN WYOMING

CITY           SKY/WX    TMP DP  RH WIND       PRES   REMARKS
JACKSON        SNOW      36  30  80 SW23      29.70R VSB 1/2 WCI  24
CODY           FAIR      48  21  34 W13       29.59R
GREYBULL         N/A     46  36  68 NW5       29.53R
6HR MIN TEMP:  43; 6HR MAX TEMP:  52;

WORLAND        FAIR      44  37  76 N5        29.54R
6HR MIN TEMP:  41; 6HR MAX TEMP:  54;

SHERIDAN       CLOUDY    45  35  68 SW12      29.52R
6HR MIN TEMP:  42; 6HR MAX TEMP:  48;

BUFFALO        FAIR      49  30  48 NW14G20   29.53R
6HR MIN TEMP:  47; 6HR MAX TEMP:  64;

GILLETTE       FAIR      56  32  40 SW23      29.48R
6HR MIN TEMP:  53; 6HR MAX TEMP:  61;

HULETT         FAIR      57  32  38 SW17G24   29.51R
NEWCASTLE      FAIR      55  30  38 S6G26     29.56S

$$
WYZ014>020-022>026-101>103-200100-
CENTRAL WYOMING

CITY           SKY/WX    TMP DP  RH WIND       PRES   REMARKS
BIG PINEY      CLOUDY    33  27  78 NW12G22   29.76R WCI  24
6HR MIN TEMP:  33; 6HR MAX TEMP:  38; 6HR PCP: TRACE;

PINEDALE       MOCLDY    32  27  80 W5        29.74R WCI  27
DUBOIS         FAIR      34  25  69 W9        29.66R WCI  26
LANDER         MOCLDY    49  24  37 W21       29.59R
6HR MIN TEMP:  41; 6HR MAX TEMP:  56;

RIVERTON       FAIR      40  31  70 NW16      29.60R WCI  31
6HR MIN TEMP:  39; 6HR MAX TEMP:  50;

CASPER         MOCLDY    48  31  51 SW24G31   29.59R
6HR MIN TEMP:  48; 6HR MAX TEMP:  57;

DOUGLAS        CLOUDY    51  32  48 SW12      29.62R
6HR MIN TEMP:  51; 6HR MAX TEMP:  58;


$$
WYZ021-027>030-104>119-200100-
SOUTHERN WYOMING

CITY           SKY/WX    TMP DP  RH WIND       PRES   REMARKS
EVANSTON       FAIR      33  27  78 W10       29.79R WCI  25
6HR MIN TEMP:  32; 6HR MAX TEMP:  35; 6HR PCP: TRACE;

KEMMERER       SNOW      32  28  86 W24G36    29.79R VSB 1/4 WCI  19
FORT BRIDGER   CLOUDY    38  35  87 W12       29.80R WCI  31
ROCK SPRINGS   CLOUDY    35  32  88 SW14      29.75R WCI  26
6HR MIN TEMP:  35; 6HR MAX TEMP:  42; 6HR PCP: TRACE;

DIXON          LGT SNOW  34  32  94 W3        29.79R VSB 1
RAWLINS        MIX PCPN  35  32  88 SW9       29.72R WCI  28
6HR MIN TEMP:  34; 6HR MAX TEMP:  48; 6HR PCP:  0.11;

SARATOGA       LGT RAIN  36  32  87 W17G26    29.73R WCI  25
LARAMIE        LGT RAIN  38  34  85 NE7       29.69R WCI  33
6HR MIN TEMP:  38; 6HR MAX TEMP:  52; 6HR PCP: TRACE;

CHEYENNE       MOCLDY    54  24  31 CALM      29.61R
6HR MIN TEMP:  51; 6HR MAX TEMP:  56;

TORRINGTON     CLOUDY    56  29  35 E10       29.56F
6HR MIN TEMP:  54; 6HR MAX TEMP:  63;

PINE BLUFFS    FAIR      52  27  37 N3        29.58S

$$




USA.gov is the U.S. government's official web portal to all federal, state and local government web resources and services.